Location: Northcutt
(34.7304°N, 84.4305°W)
Time: 04:04:28
(UTC+00:00)

Vanguard 2 - Pass Details

Date: 06 October 2022
Orbit: 553 x 2933 km, 32.9° (Epoch: 04 December)

Event Time Altitude Azimuth Distance (km) Brightness Sun altitude
Rises 23:49:58 0° 284° (WNW) 6,199 14.0 -7.8°
Reaches altitude 10° 23:54:02 10° 278° (W) 5,405 13.5 -8.6°
Maximum altitude 00:09:30 44° 214° (SW) 3,661 11.2 -11.8°
Drops below altitude 10° 00:24:52 10° 149° (SSE) 5,337 11.5 -15.0°
Sets 00:28:55 0° 143° (SE) 6,114 11.7 -15.8°
